Regional Weather Roundup
Issued by NWS

Home | Current Version | Previous Version | Graphics & Text | Print | Product List | Glossary Off
Versions: 1 2 3 4 5 6 7 8 9 10 11 12 13 14 15 16 17 18 19 20 21 22 23 24 25 26 27 28 29 30 31 32 33 34 35 36 37 38 39 40 41 42 43 44 45 46 47 48 49 50

000
ASUS43 KMKX 161711
RWRWI

WISCONSIN REGIONAL WEATHER ROUNDUP
NATIONAL WEATHER SERVICE MILWAUKEE/SULLIVAN WI
1200 PM CDT MON OCT 16 2017

NOTE: "FAIR" INDICATES FEW OR NO CLOUDS BELOW 12,000 FEET WITH NO
SIGNIFICANT WEATHER AND/OR OBSTRUCTIONS TO VISIBILITY.

WIZ001-002-006>008-014>016-023>028-161800-
NORTHWEST WISCONSIN

CITY           SKY/WX    TMP DP  RH WIND       PRES   REMARKS
SUPERIOR ARPT  SUNNY     56  38  51 SW14G22   30.11F
ASHLAND        MOSUNNY   56  37  49 SW14G23   30.13F
HAYWARD        SUNNY     54  37  52 SW9       30.15F
SIREN          SUNNY     53  37  54 W12       30.17F
CUMBERLAND     SUNNY     52  36  54 SW12      30.19S
RICE LAKE      SUNNY     54  38  54 SW9       30.21S
CHETEK         SUNNY     54  39  57 W8G20     30.20S
LADYSMITH      SUNNY     55  39  55 SW13G18   30.20F
EAU CLAIRE     SUNNY     55  37  50 SW13      30.21F
MENOMONIE      SUNNY     55  39  54 SW12      30.23S
NEW RICHMOND   SUNNY     54  37  53 SW10      30.20F
OSCEOLA        SUNNY     56  37  50 SW14      30.22F
$$

WIZ003>005-009-010-017-018-161800-
NORTH CENTRAL WISCONSIN

CITY           SKY/WX    TMP DP  RH WIND       PRES   REMARKS
MANITOWISH WTR SUNNY     49  37  64 SW8       30.15F
ARBOR VITAE    SUNNY     52  39  60 SW10G16   30.16F
WOODRUFF       SUNNY     52  39  60 SW10G16   30.16F
RHINELANDER    SUNNY     51  37  58 W15G21    30.18F
EAGLE RIVER    SUNNY     50  35  57 W16       30.16F
LAND O LAKES   SUNNY     51  36  54 SW9       30.17S
PHILLIPS       SUNNY     51  36  55 SW9       30.17F
TOMAHAWK       SUNNY     51  36  55 CALM      30.19F
MEDFORD        SUNNY     52  37  56 SW12      30.20F
MERRILL        SUNNY     53  37  55 W9G16     30.21S
$$

WIZ029-030-035-036-043>047-161800-
CENTRAL WISCONSIN

CITY           SKY/WX    TMP DP  RH WIND       PRES   REMARKS
WAUSAU         SUNNY     53  37  54 SW12      30.20F
MOSINEE        MOSUNNY   54  39  58 SW13      30.23F
MARSHFIELD     SUNNY     54  36  50 W10       30.22F
STEVENS POINT  SUNNY     52  35  51 SW9G16    30.23F
WAUPACA        SUNNY     57  36  45 SW8       30.25F
WAUTOMA        SUNNY     56  38  50 S9        30.25F
WISC RAPIDS    SUNNY     55  39  54 SW5       30.25F
CAMP DOUGLAS   MOSUNNY   57  37  47 SW6       30.25F
$$

WIZ011>013-019>022-031-037>040-048>050-161800-
NORTHEAST WISCONSIN

CITY           SKY/WX    TMP DP  RH WIND       PRES   REMARKS
ANTIGO         SUNNY     50  39  65 SW12      30.20F
SHAWANO        SUNNY     56  38  51 SW9       30.22F
OCONTO         SUNNY     53  37  54 SW10G18   30.22F
STURGEON BAY   SUNNY     52  37  56 W13       30.23F
GREEN BAY      SUNNY     53  40  61 SW14      30.24F
MANITOWOC      SUNNY     54  38  54 SW10      30.26F
APPLETON       SUNNY     54  36  50 SW9       30.24F
CLINTONVILLE   SUNNY     54  37  54 SW10      30.23F
OSHKOSH        SUNNY     54  37  52 SW8       30.25F
$$

WIZ032>034-041-042-053>061-161800-
SOUTHWEST WISCONSIN

CITY           SKY/WX    TMP DP  RH WIND       PRES   REMARKS
LA CROSSE      SUNNY     55  41  59 S8        30.26S
SPARTA         SUNNY     55  38  52 W5        30.26F
VIROQUA        SUNNY     56  39  53 SW10      30.27S
BOSCOBEL       SUNNY     58  37  45 W8        30.29F
PRAIRIE DU CHI SUNNY     56  38  50 S3        30.29F
PLATTEVILLE    SUNNY     56  37  49 SW7       30.31S
$$

WIZ056-057-062-063-064-067-068-161800-
SOUTH CENTRAL WISCONSIN

CITY           SKY/WX    TMP DP  RH WIND       PRES   REMARKS
REEDSBURG      SUNNY     55  38  52 SW5       30.27S
BARABOO/DELLS  SUNNY     55  36  49 SW7       30.27F
LONE ROCK      SUNNY     54  41  61 CALM      30.29F
MINERAL POINT  SUNNY     59  37  44 W3        30.29S
MADISON        SUNNY     55  41  59 VRB6      30.28S
MIDDLETON      SUNNY     57  36  45 W5        30.29S
WATERTOWN      SUNNY     56  38  50 SW7       30.28S
MONROE         SUNNY     55  36  47 W6        30.30R
JANESVILLE     SUNNY     55  41  58 W9        30.29S
$$

WIZ051-052-058>065-066-070>072-161800-
SOUTHEAST WISCONSIN

CITY           SKY/WX    TMP DP  RH WIND       PRES   REMARKS
MILWAUKEE      MOSUNNY   57  35  43 SW9       30.29S
WAUKESHA       SUNNY     54  34  47 SW6       30.29S
MILWAUKEE/TIMM SUNNY     55  30  38 SW7       30.29S
RACINE         SUNNY     58  37  45 SW8       30.30S
BURLINGTON     SUNNY     58  42  54 SW8       30.29R
KENOSHA        SUNNY     58  37  45 MISG      30.29S
FOND DU LAC    SUNNY     56  36  47 SW10      30.26F
SHEBOYGAN      SUNNY     55  39  54 SW7       30.26S
WEST BEND      SUNNY     54  36  50 SW6       30.28R
JUNEAU         SUNNY     53  38  55 SW5       30.29S
$$

LSZ147-162-161800-
LAKE SUPERIOR

STATION/POSITION TIME  TEMP    WIND        PRES    WAVE
                       AIR SEA DIR/SP/G            HT/PER
                 (UTC) (F)     (DEG/KT/KT) (MB)    (FT/S)
W MID LAKE BUOY  1650   50 53              1019.4R   3/ 5
DEVILS ISLAND    1700   51     230/ 18/ 20 1019.9F
SAXON HARBOR     1640   54     220/  7/ 13 1020.0F
$$

LMZ867-665-643>646-161800-
LAKE MICHIGAN

STATION/POSITION TIME  TEMP    WIND        PRES    WAVE
                       AIR SEA DIR/SP/G            HT/PER
                 (UTC) (F)     (DEG/KT/KT) (MB)    (FT/S)
S GREEN BAY BUOY 1700   51 58  220/ 12/ 16 1023.1
N MID LAKE BUOY  1650   51 60  240/ 16/ 17 1023.6F   2/ 3
NORTHPORT PIER   1640   52     260/  7/ 12 1022.7F
KEWAUNEE LAKESHO 1642   52     260/  9/ 12 1023.4F
SHEBOYGAN LAKESH 1700   54     240/  8/ 10 1024.9F
PORT WASHINGTON  1630   57     250/  6/ 11 1026.1S
MILWAUKEE LAKESH 1650   55     260/  4/  5   N/A
S MID LAKE BUOY  1650   53 62  270/  6/ 10 1026.4S   2/ 4
KENOSHA   LAKESH 1700   57     210/  6/  9 1025.4
$$

TC  - TEMPERATURE IN CELSIUS
VSB - VISIBILITY IN STATUTE MILES
WCI - WIND CHILL INDEX
HX  - HEAT INDEX





USA.gov is the U.S. government's official web portal to all federal, state and local government web resources and services.